RADUGA-1 6 [-]

Last updated on Nov. 11, 2019, 4:17 a.m. UTC

1 26936U 01045A   19314.62991372 -.00000095  00000-0  00000+0 0  9997
2 26936  12.3983  31.5865 0013221 152.8487 204.5952  0.97744275 65010
UTC
Height (km)
Latitude
Longitude
Inclination
Orbital Period
UTC large
Height (km)
Speed (km/s)
/
Latitude / Longitude
Inclination (degrees)
Orbital Period (minutes)
Azimuth
Elevation
Range (km)
Doppler Factor
iOS Compass Heading
iOS Angle

Next 30 passes for location: Hong Kong

Rise time Rise Azimuth (degrees) Set time Set Azimuth (degrees) Duration Max altitude (degrees)

No matching passes for this satellites